Regional Weather Roundup
Issued by NWS Wakefield, VA

Home | Current Version | Previous Version | Graphics & Text | Print | Product List | Glossary On
Versions: 1 2 3 4 5 6 7 8 9 10 11 12 13 14 15 16 17 18 19 20 21 22 23 24 25 26 27 28 29 30 31 32 33 34 35 36 37 38 39 40 41 42 43 44 45 46 47 48 49 50
412
ASUS41 KAKQ 290115
RWRAKQ

REGIONAL WEATHER ROUNDUP
NATIONAL WEATHER SERVICE WAKEFIELD VA
900 PM EDT TUE MAR 28 2017

Note: "fair" indicates few or no clouds below 12,000 feet with no
significant weather and/or obstructions to visibility. * = Denotes
station may not report precipitation (e.g., rain,snow,etc.),
thunder or fog.

VAZ042-051-052>054-056-290200-
NORTHERN VIRGINIA

CITY           SKY/WX    TMP DP  RH WIND       PRES   REMARKS
WASH NATIONAL  MOCLDY    66  55  67 N6        29.90R
DULLES         CLOUDY    61  57  87 N7        29.92R
FORT BELVOIR   CLOUDY    65  55  70 NW3       29.90R
QUANTICO       CLOUDY    60  59  96 NW3       29.91R
FREDERICKSBRG* CLOUDY    66  59  79 W6        29.90R
STAFFORD*      CLOUDY    62  60  92 W5        29.95R
WARRENTON      CLOUDY    61  57  88 CALM      29.91R
CULPEPER*      MOCLDY    62  60  94 NW3       29.93R
MANASSAS*      LGT RAIN N/A N/A N/A NW7       29.92R
LEESBURG*      LGT RAIN  61  61 100 N3        29.93R
WINCHESTER     CLOUDY    59  54  82 NW3       29.94R
FRONT ROYAL*   CLOUDY    59  55  88 N3        29.93R
LURAY*         CLOUDY    61  57  88 NE5       29.93R
$$

VAZ048-049-060>072-079>083-290200-
CENTRAL AND SOUTH CENTRAL VIRGINIA

CITY           SKY/WX    TMP DP  RH WIND       PRES   REMARKS
RICHMOND       PTCLDY    64  58  80 CALM      29.89R
CHESTERFIELD*  CLOUDY    63  45  51 NW5       29.92R
PETERSBURG*    CLOUDY    57  56  94 CALM      29.91R
HANOVER        CLOUDY    64  57  78 CALM      29.91R
TAPPAHANNOCK*  CLEAR     62  62 100 CALM      29.90S
QUINTON*       MOCLDY    63  60  90 W9        29.89R
CHARLOTTSVILLE PTCLDY    62  58  86 CALM      29.91R
GORDONSVILLE*  CLOUDY    58  58 100 CALM      29.91R
ORANGE*        PTCLDY    55  55 100 CALM      29.93R
LOUISA*        CLOUDY    63  61  94 CALM      29.90R
BUMPASS*       CLOUDY    58  58 100 CALM      29.90R
FARMVILLE*     CLOUDY    64  60  88 CALM      29.90R
CREWE*         MOCLDY    60  60 100 CALM      29.91R
FORT PICKETT*  FAIR      61  57  86 CALM      29.91R
CHASE CITY*    FAIR      58  57  94 CALM      29.91R
CLARKSVILLE*   FAIR      59  59 100 CALM      29.91R
SOUTH HILL*    CLEAR     57  57 100 CALM      29.97R
LAWRENCEVILLE* FAIR      58  56  91 CALM      29.90R
EMPORIA*       CLEAR     55  55 100 CALM      29.92R FOG
$$

VAZ088>098-290200-
SOUTHEAST VIRGINIA

CITY           SKY/WX    TMP DP  RH WIND       PRES   REMARKS
NORFOLK        LGT RAIN  66  61  84 SW7       29.88R
VIRGINIA BEACH LGT RAIN  64  60  87 W3        29.88R
NORFOLK NAVAL  MOCLDY    63  59  87 SW5       29.90R
WEST POINT*    MOCLDY    62  60  94 CALM      29.91R
SALUDA*          N/A     58  58 100 CALM      29.89R VSB 3/4
NEWPORT NEWS   MOCLDY    60  59  96 NE6       29.89R
LANGLEY AFB    MOCLDY    61  61 100 N6        29.89R
FORT EUSTIS    DRIZZLE   60  58  93 CALM      29.87R
WILLIAMSBURG*  PTCLDY    66  59  77 NE3       29.90R
HR EXEC AP*    FAIR      57  54  88 CALM      29.87R
FRANKLIN*        N/A     59  58  98 CALM      29.90R FOG
US460-WAKEFLD  PTCLDY    59  57  93 N3        29.89R
$$

VAZ020-022-025-037-045-290200-
WEST CENTRAL AND SOUTHWEST VIRGINIA

CITY           SKY/WX    TMP DP  RH WIND       PRES   REMARKS
STAUNTON*      MOCLDY    59  55  86 CALM      29.96R
WAYNESBORO*    CLOUDY    64  51  63 NW5       29.95R
HOT SPRINGS VA CLOUDY    54  43  66 NW8G16    30.02R
LYNCHBURG      CLEAR     62  48  60 CALM      29.94R
DANVILLE       MOCLDY    66  50  56 W5        29.93R
SOUTH BOSTON*  FAIR      61  60  95 W3        29.92R
MARTINSVILLE   CLEAR     61  49  63 CALM      29.98R
ROANOKE        PTCLDY    63  49  60 W5        29.99R
BLACKSBURG     CLOUDY    59  52  77 W3        30.04R
DUBLIN*        PTCLDY    59  50  73 NW10      30.03R
MARION*        CLOUDY    59  50  73 NW9       30.07R
HILLSVILLE*    CLOUDY    57  49  75 NW3       30.02R
RICHLANDS*     CLOUDY    55  51  85 NW6       30.06R
WISE*          CLOUDY    55  48  76 W3        30.08R
ABINGDON*      CLOUDY    62  51  67 N5        30.04R
$$

MDZ021>025-VAZ099-100-290200-
SOUTHERN MARYLAND AND THE DELMARVA PENINSULA

CITY           SKY/WX    TMP DP  RH WIND       PRES   REMARKS
PATUXENT RIVER MOCLDY    56  56 100 CALM      29.88R
BAY BRIDGE APT CLOUDY    61  54  77 N9        29.90R
LEONARDTOWN    CLOUDY    61  55  82 W3        29.91R
DOVER          CLOUDY    54  54 100 N12       29.89R
GEORGETOWN     CLEAR     64  54  69 NW6       29.87R
EASTON         MOCLDY    64  55  72 N5        29.93R
CAMBRIDGE      MOCLDY    59  57  94 CALM      29.89R
SALISBURY      MOCLDY    62  58  86 W3        29.87R
OCEAN CITY     PTCLDY    58  54  86 NW3       29.87R
WALLOPS ISLAND CLOUDY    59  57  93 SW3       29.88R
ACCOMACK*      CLEAR     59  54  83 CALM      29.89R
$$

NCZ012>017-030>032-290200-
NORTH CENTRAL AND EASTERN NORTH CAROLINA

CITY           SKY/WX    TMP DP  RH WIND       PRES   REMARKS
ROANOKE RAPIDS FAIR      59  59 100 CALM      29.91R FOG
RALEIGH        PTCLDY    66  55  67 NE5       29.91R
ELIZABETH CITY CLEAR     62  59  90 SW8       29.89R
AHOSKIE*       FOG       58  58  98 CALM      29.91R VSB 1/2
EDENTON*       CLEAR     64  59  83 CALM      29.91R
CURRITUCK*     CLEAR     66  59  79 SW6       29.89R
KILL DEVIL HLS NOT AVBL
MANTEO         PTCLDY    61  60  95 SW5       29.90R
CAPE HATTERAS  LGT RAIN  64  59  83 W13G25    29.89F
TARBORO*       NOT AVBL
GOLDSBORO      CLEAR     65  65 100 E6        29.90R
WASHINGTON     PTCLDY    60  59  94 CALM      29.92R
GREENVILLE     PTCLDY    64  61  88 CALM      29.94R
NEW BERN       PTCLDY    59  59 100 CALM      29.92R
WILMINGTON     CLOUDY    68  60  75 VRB7      29.92R
$$

VAZ048-290200-
ELSEWHERE

CITY           SKY/WX    TMP DP  RH WIND       PRES   REMARKS
HARRISBURG PA  CLOUDY    54  54 100 N6        29.92R FOG
BALTIMORE      CLOUDY    63  56  78 N7        29.90R
ANNAPOLIS      CLOUDY    61  55  81 N5        29.90R
ANDREWS AFB    CLEAR     62  53  72 N8        29.89R
PHILADELPHIA   CLOUDY    49  47  93 N7        29.92R
HENDERSON NC   PTCLDY    61  54  77 CALM      29.92R
GREENSBORO     PTCLDY    67  50  54 N14G21    29.94R
ROCKY MOUNT    MOCLDY    62  61  96 CALM      29.91R
$$

VAZ100-290200-
MARINE

STATION/POSITION TIME  TEMP    WIND        PRES    WAVE   SWELL
                       AIR SEA DIR/SP/G            HT/PER HT/PER
                 (UTC) (F)     (DEG/KT/KT) (MB)    (FT/S) (FT/S)
CAPE MAY NJ      0048   49 48  310/  1/  2 1011.3R
LEWES DE         0048   50 46  340/ 11/ 13 1011.6R
OCEAN-CITY-INLET 0048   55 45  310/  4/  5 1011.7R
WACHAPREAGUE VA  0048   60 56  280/  1/  3 1011.5R
THOMAS POINT MD  0000   59 47   20/  8/  8   N/A
GOOSES REEF MD   0100   54 48   20/  2/  4 1013.0    0
COVE POINT MD    0048   61        CALM     1012.5R
SOLOMONS ISLAND  0048   52 48  240/  1/  2   N/A
BISHOPS HEAD MD  0048   54 58  280/  6/  6 1012.2R
PINEY POINT MD   0048          330/  2/  3   N/A
POTOMAC MD       0100   57 50  270/  4/  4 1011.0    0
CAMBRIDGE MD     0048   62 48  290/  5/  6 1011.3R
LEWISETTA VA     0048   60 56  260/  4/  4 1011.6R
RAPPAHANNOCK LGT 0048          290/ 10/ 10 1012.5R
STINGRAY PT      0050   57     330/  6/  8 1011.9R
YORK RVR RNG VA  0048   58     360/  5/  7 1011.4R
YORKTOWN VA      0048   62 51  270/  1/  2 1011.8R
JAMESTOWN VA     0100   62 56  340/  2/  4   N/A     0
DOMINION TERM VA 0048   61      CALM  /  1 1012.0R
KIPTOPEKE VA     0048      52  330/ 10/ 11   N/A
CHES BAY BRIDGE  0048   64 50  240/  7/  9 1011.8R
CAPE HENRY VA    0048   66     230/  8/  9   N/A
WILLOUBY STN VA  0048   66     220/  6/  7 1012.8R
S CRANEY ISL VA  0048   65     240/  5/  7 1011.7R
CAPE HENRY BUOY  0042      51                N/A     3/ 9   2/11
CAPE CHARLES BUO 0051      49                N/A     3/10   2/11
OFFSHORE WE BUOY 0051      51                N/A     4/10   2/11
64NM E OF VA BCH 0050   54 49  210/  8/  8 1011.6R   4/10   3/10
DUCK PIER NC     0048   66 47  210/ 10/ 12 1011.4R
44100 DUCK FRF   0035      52                N/A     3/10   2/11
44056 DUCK FRF   0100      50                N/A     2/11   2/11
OREGON INLET NC  0048          210/ 10/ 12 1012.1R
HATTERAS NC      0048   64 62  230/ 14/ 21 1012.4R
DIAMOND SHLS NC  0050   73 75  250/ 19/ 23 1011.8R   5/ 9   3/ 9
CAPE LOOKOUT NC  0000   67     250/ 10/ 12 1012.4R
$$




USA.gov is the U.S. government's official web portal to all federal, state and local government web resources and services.